Flag for Peru Weather past 2 weeks in Arequipa, Arequipa, Peru

Now
54 °F

Clear.


Feels Like: 52 °F
Forecast: 53 / 74 °F
Wind: 6 mph from North

Location: Arequipa Airport

Current Time: Sep 24, 2014 at 12:14:50 AM

Latest Report: Sep 23, 2014 at 11:00 PM


Visibility: 10 mi

Pressure: 30.33 "Hg

Humidity: 21%

Dew point: 14 °F

Location of ArequipaLocation

Historic Weather in Arequipa — Graph

°F

Arequipa temperature yesterday

Maximum temperature yesterday: 66 °F (at 11:00 AM)
Minimum temperature yesterday: 46 °F (at 4:00 AM)
Average temperature yesterday: 57 °F

Past Weeks' High & Low Weather Summary

 TemperatureHumidityPressure
High72 °F (Sep 9, 2:00 PM)100% (Sep 20, 3:00 AM)30.42 "Hg (Sep 20, 3:00 AM)
Low46 °F (Sep 12, 6:00 AM)11% (Sep 21, 11:00 AM)30.15 "Hg (Sep 11, 4:00 AM)
Average59 °F29%30.31 "Hg
* Reported Sep 8 11:00 PM — Sep 23 11:00 PM, Arequipa, Weather by CustomWeather, © 2014

Note: Actual official high and low records may vary slightly from our data, if they occured in-between our weather recording intervals... More about our weather records

Advertising

Arequipa weather history for previous 24 hours

 ConditionsComfort  
Time TempWeatherWind HumidityBarometerVisibility
11:00 PM
Sep 23
54 °FClear.6 mph21%30.33 "Hg10 mi
10:00 PM55 °FPassing clouds.5 mph19%30.36 "HgN/A
9:00 PM54 °FClear.3 mph44%30.36 "Hg10 mi
8:00 PM55 °FClear.3 mph38%30.33 "Hg10 mi
7:00 PM57 °FClear.No wind41%30.33 "Hg10 mi
6:00 PM57 °FClear.6 mph44%30.33 "Hg10 mi
5:00 PM61 °FPassing clouds.10 mph39%30.30 "HgN/A
4:00 PM63 °FPassing clouds.12 mph30%30.30 "HgN/A
3:00 PM64 °FPassing clouds.14 mph30%30.30 "HgN/A
2:00 PM64 °FPassing clouds.15 mph24%30.33 "HgN/A
1:00 PM66 °FSunny.15 mph22%30.33 "Hg10 mi
12:00 PM66 °FPassing clouds.12 mph21%30.36 "HgN/A
11:00 AM66 °FPassing clouds.9 mph13%30.36 "HgN/A
10:00 AM63 °FPassing clouds.7 mph14%30.39 "HgN/A
9:00 AM63 °FPassing clouds.5 mph13%30.39 "HgN/A
8:00 AM57 °FPartly sunny.3 mph13%30.39 "HgN/A
7:00 AM55 °FPartly sunny.5 mph14%30.36 "HgN/A
6:00 AM54 °FPartly sunny.1 mph14%30.33 "HgN/A
5:00 AM50 °FPassing clouds.5 mph14%30.33 "HgN/A
4:00 AM46 °FPassing clouds.3 mph27%30.33 "HgN/A
3:00 AM50 °FPassing clouds.6 mph28%30.33 "HgN/A
2:00 AM50 °FPassing clouds.3 mph16%30.33 "HgN/A
1:00 AM52 °FPassing clouds.5 mph15%30.36 "HgN/A
12:00 AM48 °FPassing clouds.1 mph37%30.39 "HgN/A
Weather by CustomWeather, © 2014

See weather overviewHow to use our weather pages